| time (UTC) | temp C | wind direction | speed KPH | gust KPH | rain 1hr cm | rain 24hr cm | rain mn cm | humidity % | barometer mb |
| 20260904001519 | 25 | 0.0 | 0.0 | 0.00 | 1.02 | 1.02 | 100 | 1012.3 | |
| 20260904000519 | 25 | 0.0 | 0.0 | 0.00 | 1.02 | 1.02 | 100 | 1012.4 | |
| 20260903235519 | 25 | 0.0 | 0.0 | 0.00 | 1.02 | 1.02 | 100 | 1012.5 | |
| 20260903234732 | 26 | 0.0 | 0.0 | 0.00 | 1.02 | 1.02 | 100 | 1012.4 | |
| 20260903233519 | 26 | 0.0 | 0.0 | 0.00 | 1.02 | 1.02 | 100 | 1012.2 | |
| 20260903232520 | 26 | 0.0 | 0.0 | 0.00 | 1.02 | 1.02 | 100 | 1011.9 | |
| 20260903231943 | 27 | 0.0 | 0.0 | 0.00 | 1.02 | 1.02 | 100 | 1011.9 | |
| 20260903230519 | 27 | 0.0 | 0.0 | 0.00 | 1.02 | 1.02 | 100 | 1012.1 | |
| 20260903225520 | 27 | 0.0 | 0.0 | 0.00 | 1.02 | 1.02 | 100 | 1012.2 | |
| 20260903224946 | 27 | 0.0 | 0.0 | 0.00 | 1.02 | 1.02 | 100 | 1012.0 | |
| 20260903223520 | 28 | 0.0 | 0.0 | 0.00 | 1.02 | 1.02 | 4 | 1012.0 | |
| 20260903222519 | 28 | 0.0 | 0.0 | 0.00 | 1.02 | 1.02 | 16 | 1012.0 | |
| 20260903221731 | 28 | 0.0 | 1.6 | 0.00 | 1.02 | 1.02 | 29 | 1011.6 | |
| 20260903220520 | 28 | 0.0 | 1.6 | 0.00 | 1.02 | 1.02 | 39 | 1011.7 | |
| 20260903215519 | 29 | 225 | 1.6 | 4.8 | 0.00 | 1.02 | 1.02 | 50 | 1011.8 |
| 20260903214519 | 29 | 225 | 1.6 | 4.8 | 0.00 | 1.02 | 1.02 | 50 | 1011.9 |
| 20260903213520 | 29 | 225 | 3.2 | 8.0 | 0.00 | 1.02 | 1.02 | 57 | 1011.8 |
| 20260903212520 | 30 | 225 | 1.6 | 4.8 | 0.00 | 1.02 | 1.02 | 54 | 1011.8 |
| 20260903211520 | 29 | 225 | 1.6 | 8.0 | 0.00 | 1.02 | 1.02 | 49 | 1011.8 |
| 20260903210519 | 29 | 225 | 3.2 | 8.0 | 0.00 | 1.02 | 1.02 | 49 | 1011.7 |
| 20260903205519 | 29 | 225 | 6.4 | 16.1 | 0.00 | 1.02 | 1.02 | 54 | 1011.6 |
| 20260903204520 | 29 | 203 | 1.6 | 8.0 | 0.00 | 1.02 | 1.02 | 50 | 1011.7 |
| 20260903203519 | 29 | 203 | 4.8 | 8.0 | 0.00 | 1.02 | 1.02 | 51 | 1011.9 |
| 20260903202519 | 29 | 203 | 3.2 | 8.0 | 0.00 | 1.02 | 1.02 | 49 | 1011.9 |
| 20260903201520 | 29 | 203 | 4.8 | 9.7 | 0.00 | 1.02 | 1.02 | 48 | 1011.9 |
| 20260903200520 | 29 | 203 | 6.4 | 14.5 | 0.00 | 1.02 | 1.02 | 49 | 1012.0 |
| 20260903195729 | 30 | 203 | 4.8 | 11.3 | 0.00 | 1.02 | 1.02 | 54 | 1012.0 |
| 20260903194520 | 30 | 203 | 6.4 | 11.3 | 0.00 | 1.02 | 1.02 | 56 | 1012.1 |
| 20260903193520 | 30 | 225 | 4.8 | 12.9 | 0.00 | 1.02 | 1.02 | 55 | 1012.2 |
| 20260903192731 | 30 | 158 | 4.8 | 11.3 | 0.00 | 1.02 | 1.02 | 60 | 1012.3 |
| 20260903191520 | 30 | 293 | 6.4 | 16.1 | 0.00 | 1.02 | 1.02 | 61 | 1012.4 |
| 20260903190519 | 30 | 293 | 8.0 | 16.1 | 0.00 | 1.02 | 1.02 | 61 | 1012.5 |
| 20260903185520 | 29 | 270 | 8.0 | 12.9 | 0.00 | 1.02 | 1.02 | 62 | 1012.8 |
| 20260903184520 | 29 | 270 | 6.4 | 11.3 | 0.00 | 1.02 | 1.02 | 61 | 1013.0 |
| 20260903183520 | 29 | 315 | 6.4 | 14.5 | 0.00 | 1.02 | 1.02 | 57 | 1013.2 |
| 20260903182520 | 28 | 248 | 6.4 | 14.5 | 0.00 | 1.02 | 1.02 | 52 | 1013.2 |
| 20260903181520 | 28 | 225 | 6.4 | 12.9 | 0.00 | 1.02 | 1.02 | 55 | 1013.3 |
| 20260903180734 | 28 | 225 | 6.4 | 11.3 | 0.00 | 1.02 | 1.02 | 50 | 1013.5 |
| 20260903175520 | 28 | 158 | 4.8 | 11.3 | 0.00 | 1.02 | 1.02 | 50 | 1013.5 |
| 20260903174731 | 28 | 225 | 6.4 | 14.5 | 0.00 | 1.02 | 1.02 | 51 | 1013.8 |
| 20260903173520 | 28 | 203 | 6.4 | 11.3 | 0.00 | 1.04 | 1.02 | 53 | 1013.9 |
| 20260903172520 | 28 | 225 | 8.0 | 12.9 | 0.00 | 1.04 | 1.02 | 55 | 1013.8 |
| 20260903171520 | 27 | 225 | 6.4 | 16.1 | 0.00 | 1.04 | 1.02 | 46 | 1013.9 |
| 20260903170520 | 27 | 293 | 4.8 | 12.9 | 0.00 | 1.07 | 1.02 | 38 | 1013.9 |
| 20260903165519 | 27 | 293 | 6.4 | 14.5 | 0.00 | 1.07 | 1.02 | 21 | 1014.1 |
| 20260903164520 | 26 | 270 | 8.0 | 16.1 | 0.00 | 1.09 | 1.02 | 27 | 1014.4 |
| 20260903163520 | 26 | 203 | 8.0 | 17.7 | 0.00 | 1.14 | 1.02 | 28 | 1014.6 |
| 20260903162734 | 26 | 225 | 8.0 | 16.1 | 0.00 | 1.19 | 1.02 | 29 | 1014.7 |
| 20260903161519 | 26 | 248 | 8.0 | 14.5 | 0.00 | 1.24 | 1.02 | 27 | 1014.9 |
| 20260903160730 | 26 | 248 | 6.4 | 14.5 | 0.00 | 1.27 | 1.02 | 12 | 1015.1 |
| 20260903155520 | 25 | 270 | 6.4 | 12.9 | 0.00 | 1.32 | 1.02 | 100 | 1015.0 |
| 20260903154520 | 24 | 293 | 4.8 | 12.9 | 0.00 | 1.40 | 1.02 | 100 | 1015.2 |
| 20260903153520 | 23 | 293 | 6.4 | 12.9 | 0.00 | 1.42 | 1.02 | 100 | 1015.2 |
| 20260903152836 | 22 | 270 | 6.4 | 14.5 | 0.00 | 1.88 | 1.02 | 100 | 1015.4 |
| 20260903152623 | 21 | 270 | 4.8 | 12.9 | 0.00 | 2.29 | 1.02 | 100 | 1015.3 |
| 20260903150520 | 21 | 270 | 6.4 | 17.7 | 0.00 | 2.31 | 1.02 | 100 | 1015.4 |
| 20260903145520 | 21 | 270 | 6.4 | 11.3 | 0.00 | 2.31 | 1.02 | 100 | 1015.3 |
| 20260903144520 | 21 | 248 | 3.2 | 9.7 | 0.00 | 2.31 | 1.02 | 100 | 1015.0 |
| 20260903143520 | 21 | 270 | 3.2 | 9.7 | 0.00 | 2.31 | 1.02 | 100 | 1015.0 |
| 20260903142730 | 21 | 270 | 1.6 | 9.7 | 0.00 | 2.31 | 1.02 | 100 | 1015.4 |
| 20260903141731 | 21 | 270 | 4.8 | 16.1 | 0.00 | 2.31 | 1.02 | 100 | 1016.0 |
| 20260903140732 | 21 | 203 | 4.8 | 8.0 | 0.00 | 2.31 | 1.02 | 100 | 1015.8 |
| 20260903135946 | 21 | 293 | 3.2 | 8.0 | 0.00 | 2.31 | 1.02 | 100 | 1016.0 |
| 20260903134947 | 21 | 293 | 3.2 | 8.0 | 0.00 | 2.31 | 1.02 | 100 | 1016.1 |
| 20260903133520 | 21 | 315 | 8.0 | 17.7 | 0.00 | 2.31 | 1.02 | 100 | 1016.7 |
| 20260903132520 | 21 | 248 | 3.2 | 9.7 | 0.00 | 2.31 | 1.02 | 100 | 1016.4 |
| 20260903131520 | 21 | 248 | 4.8 | 9.7 | 0.00 | 2.31 | 1.02 | 100 | 1015.5 |
| 20260903130520 | 21 | 248 | 1.6 | 8.0 | 0.00 | 2.31 | 1.02 | 100 | 1015.4 |
| 20260903125520 | 21 | 248 | 4.8 | 12.9 | 0.00 | 2.31 | 1.02 | 100 | 1015.5 |
| 20260903124520 | 21 | 180 | 3.2 | 9.7 | 0.00 | 2.31 | 1.02 | 100 | 1015.5 |
| 20260903123520 | 20 | 180 | 1.6 | 6.4 | 0.00 | 2.31 | 1.02 | 100 | 1015.6 |
| 20260903122731 | 21 | 180 | 1.6 | 8.0 | 0.00 | 2.31 | 1.02 | 100 | 1015.7 |
| 20260903121520 | 20 | 180 | 1.6 | 4.8 | 0.00 | 2.31 | 1.02 | 100 | 1015.5 |
| 20260903120520 | 20 | 180 | 3.2 | 8.0 | 0.00 | 2.31 | 1.02 | 100 | 1015.5 |
| 20260903115520 | 20 | 0.0 | 0.0 | 0.00 | 2.31 | 1.02 | 100 | 1015.4 | |
| 20260903114730 | 20 | 180 | 3.2 | 8.0 | 0.00 | 2.31 | 1.02 | 100 | 1015.1 |
| 20260903113731 | 20 | 225 | 1.6 | 4.8 | 0.03 | 2.31 | 1.02 | 100 | 1015.0 |
| 20260903112520 | 19 | 203 | 1.6 | 4.8 | 0.08 | 2.31 | 1.02 | 100 | 1015.0 |
| 20260903111520 | 19 | 203 | 3.2 | 9.7 | 0.10 | 2.31 | 1.02 | 100 | 1015.3 |
| 20260903110520 | 19 | 203 | 6.4 | 16.1 | 0.15 | 2.31 | 1.02 | 100 | 1015.3 |
| 20260903105520 | 19 | 113 | 1.6 | 8.0 | 0.18 | 2.31 | 1.02 | 100 | 1015.2 |
| 20260903104730 | 19 | 0.0 | 3.2 | 0.23 | 2.31 | 1.02 | 100 | 1015.5 | |
| 20260903103731 | 19 | 113 | 1.6 | 6.4 | 0.28 | 2.29 | 0.99 | 100 | 1015.3 |
| 20260903102520 | 19 | 0.0 | 3.2 | 0.28 | 2.24 | 0.94 | 100 | 1016.0 | |
| 20260903101520 | 19 | 113 | 1.6 | 6.4 | 0.30 | 2.21 | 0.91 | 100 | 1016.1 |
| 20260903100520 | 19 | 113 | 8.0 | 14.5 | 0.30 | 2.16 | 0.86 | 100 | 1015.5 |
| 20260903095520 | 19 | 180 | 3.2 | 6.4 | 0.28 | 2.13 | 0.84 | 100 | 1016.8 |
| 20260903094520 | 19 | 180 | 1.6 | 4.8 | 0.46 | 2.08 | 0.79 | 100 | 1017.4 |
| 20260903093732 | 19 | 0.0 | 1.6 | 0.38 | 2.01 | 0.71 | 100 | 1017.7 | |
| 20260903092733 | 19 | 0.0 | 3.2 | 0.33 | 1.96 | 0.66 | 100 | 1017.5 | |
| 20260903091520 | 19 | 0.0 | 3.2 | 0.28 | 1.91 | 0.61 | 100 | 1017.1 | |
| 20260903090730 | 19 | 0.0 | 3.2 | 0.23 | 1.85 | 0.56 | 100 | 1016.7 | |
| 20260903085731 | 19 | 180 | 1.6 | 4.8 | 0.23 | 1.85 | 0.56 | 100 | 1016.4 |
| 20260903084625 | 19 | 158 | 1.6 | 8.0 | 0.03 | 1.63 | 0.33 | 100 | 1017.5 |
| 20260903082520 | 19 | 0.0 | 3.2 | 0.03 | 1.63 | 0.33 | 100 | 1017.0 | |
| 20260903081520 | 19 | 158 | 1.6 | 4.8 | 0.25 | 1.63 | 0.33 | 100 | 1016.4 |
| 20260903080518 | 19 | 158 | 1.6 | 3.2 | 0.30 | 1.63 | 0.33 | 100 | 1016.4 |
| 20260903075520 | 19 | 0.0 | 1.6 | 0.30 | 1.63 | 0.33 | 100 | 1016.5 | |
| 20260903074520 | 19 | 158 | 1.6 | 4.8 | 0.30 | 1.60 | 0.30 | 100 | 1016.1 |
| 20260903073518 | 19 | 158 | 1.6 | 6.4 | 0.30 | 1.60 | 0.30 | 100 | 1016.7 |
| 20260903072521 | 19 | 158 | 1.6 | 6.4 | 0.30 | 1.60 | 0.30 | 100 | 1016.1 |
| 20260903071520 | 19 | 293 | 6.4 | 12.9 | 0.08 | 1.37 | 0.08 | 100 | 1017.1 |
| 20260903070520 | 20 | 113 | 4.8 | 11.3 | 0.03 | 1.32 | 0.03 | 100 | 1015.8 |
| 20260903065518 | 20 | 113 | 4.8 | 11.3 | 0.03 | 1.32 | 0.03 | 100 | 1015.9 |
| 20260903064520 | 19 | 68 | 4.8 | 16.1 | 0.00 | 1.30 | 0.00 | 100 | 1016.4 |
| 20260903063520 | 19 | 90 | 1.6 | 4.8 | 0.00 | 1.30 | 0.00 | 100 | 1016.0 |
| 20260903062518 | 19 | 0.0 | 1.6 | 0.00 | 1.30 | 0.00 | 100 | 1015.4 | |
| 20260903061521 | 19 | 90 | 3.2 | 4.8 | 0.00 | 1.32 | 0.00 | 100 | 1014.9 |
| 20260903060520 | 20 | 90 | 1.6 | 9.7 | 0.00 | 1.32 | 0.00 | 100 | 1015.2 |
| 20260903055518 | 20 | 90 | 3.2 | 9.7 | 0.00 | 1.32 | 0.00 | 100 | 1015.2 |
| 20260903054519 | 20 | 90 | 6.4 | 12.9 | 0.00 | 1.32 | 0.00 | 100 | 1015.5 |
| 20260903053735 | 20 | 90 | 4.8 | 12.9 | 0.00 | 1.32 | 0.00 | 100 | 1015.6 |
| 20260903052520 | 20 | 90 | 1.6 | 8.0 | 0.00 | 1.32 | 0.00 | 100 | 1015.4 |
| 20260903051518 | 20 | 90 | 3.2 | 8.0 | 0.00 | 1.32 | 0.00 | 100 | 1015.6 |
| 20260903050519 | 20 | 90 | 3.2 | 8.0 | 0.00 | 1.32 | 0.00 | 100 | 1015.7 |
| 20260903045518 | 20 | 90 | 4.8 | 11.3 | 0.00 | 1.32 | 0.00 | 100 | 1015.9 |
| 20260903044520 | 21 | 90 | 6.4 | 16.1 | 0.00 | 1.32 | 0.00 | 100 | 1016.4 |
| 20260903043520 | 21 | 90 | 6.4 | 12.9 | 0.00 | 1.32 | 0.00 | 100 | 1016.4 |
| 20260903042518 | 21 | 90 | 3.2 | 8.0 | 0.00 | 1.32 | 0.00 | 100 | 1016.7 |
| 20260903041518 | 21 | 68 | 3.2 | 8.0 | 0.00 | 1.32 | 0.00 | 100 | 1017.0 |
| 20260903040520 | 21 | 135 | 1.6 | 4.8 | 0.00 | 1.32 | 0.00 | 100 | 1016.7 |
| 20260903035520 | 21 | 0.0 | 3.2 | 0.00 | 1.32 | 1.32 | 100 | 1016.1 | |
| 20260903034519 | 21 | 135 | 1.6 | 6.4 | 0.00 | 1.32 | 1.32 | 100 | 1015.9 |
| 20260903033520 | 21 | 135 | 6.4 | 16.1 | 0.00 | 1.32 | 1.32 | 100 | 1015.8 |
| 20260903032520 | 21 | 135 | 6.4 | 11.3 | 0.00 | 1.32 | 1.32 | 100 | 1016.0 |
| 20260903031733 | 21 | 135 | 3.2 | 8.0 | 0.00 | 1.35 | 1.32 | 100 | 1016.0 |
| 20260903030728 | 21 | 135 | 6.4 | 12.9 | 0.00 | 1.50 | 1.32 | 100 | 1015.9 |
| 20260903025520 | 21 | 90 | 6.4 | 9.7 | 0.00 | 2.16 | 1.32 | 100 | 1016.1 |
| 20260903024520 | 21 | 90 | 3.2 | 11.3 | 0.00 | 2.92 | 1.32 | 100 | 1016.3 |
| 20260903023520 | 21 | 90 | 6.4 | 12.9 | 0.00 | 4.24 | 1.32 | 100 | 1016.0 |
| 20260903022520 | 21 | 90 | 4.8 | 11.3 | 0.00 | 4.45 | 1.32 | 100 | 1016.0 |
| 20260903021946 | 21 | 90 | 6.4 | 14.5 | 0.00 | 4.45 | 1.32 | 100 | 1015.6 |
| 20260903020520 | 21 | 90 | 6.4 | 11.3 | 0.00 | 4.50 | 1.32 | 100 | 1015.3 |
| 20260903015518 | 21 | 90 | 3.2 | 9.7 | 0.00 | 4.50 | 1.32 | 100 | 1015.4 |
| 20260903014520 | 21 | 90 | 4.8 | 12.9 | 0.00 | 4.52 | 1.32 | 100 | 1015.7 |
| 20260903013520 | 21 | 90 | 6.4 | 11.3 | 0.00 | 4.55 | 1.32 | 100 | 1015.5 |
| 20260903012520 | 21 | 90 | 9.7 | 17.7 | 0.00 | 4.55 | 1.32 | 100 | 1015.5 |
| 20260903011520 | 21 | 90 | 6.4 | 11.3 | 0.00 | 4.55 | 1.32 | 100 | 1015.5 |
| 20260903010520 | 21 | 90 | 8.0 | 12.9 | 0.00 | 4.55 | 1.32 | 100 | 1015.7 |
| 20260903005520 | 21 | 90 | 4.8 | 11.3 | 0.00 | 4.55 | 1.32 | 100 | 1015.7 |
| 20260903004520 | 21 | 90 | 4.8 | 11.3 | 0.00 | 4.55 | 1.32 | 100 | 1015.8 |
| 20260903003520 | 21 | 90 | 3.2 | 8.0 | 0.00 | 4.55 | 1.32 | 100 | 1015.8 |
| 20260903002520 | 21 | 90 | 1.6 | 4.8 | 0.00 | 4.55 | 1.32 | 100 | 1015.4 |